Dewpoint
62 62 61 61 61 61 60 60 60 60 60 60 59 59 59 60 60 60 60 60 60 61 61 61 61 61 62 62 63 63 62 62 61 61 61 61 60 60 60 59 58 59
62 61 61 61 60 60 59 60 60 60 60 59 59 59 60 60 59 60 60 60 60 60 61 61 61 61 61 61 62 62 61 61 61 63 61 61 60 60 60 59 59 58
62 61 61 60 60 59 59 59 60 59 60 59 59 60 60 60 60 60 60 60 60 60 60 61 60 61 61 61 61 61 61 60 61 61 61 61 60 60 60 59 59 59
62 61 61 60 60 59 60 59 59 59 60 59 59 60 60 60 59 59 60 62 60 59 59 60 60 60 60 60 60 60 60 60 61 61 61 60 60 60 60 60 59 58
61 61 61 61 60 60 60 59 59 60 59 60 60 60 60 59 58 59 60 59 59 59 59 59 59 59 60 60 60 59 59 59 59 61 60 60 59 60 60 60 59 58
62 62 61 61 60 60 60 59 59 59 58 59 59 60 59 58 59 59 58 58 59 59 58 58 58 58 59 59 59 59 59 59 59 60 60 60 59 59 62 60 59 58
61 61 61 61 60 60 60 59 59 59 59 59 59 59 58 58 58 57 57 58 58 58 58 58 58 57 58 58 57 58 58 58 59 60 60 59 60 59 60 60 59 59
61 61 61 61 60 59 60 59 59 59 59 59 59 58 58 58 56 56 55 56 56 56 57 57 57 57 57 56 56 57 57 57 58 58 59 59 59 60 59 60 59 58
62 61 61 60 60 59 59 59 59 59 59 59 58 59 58 57 56 55 54 54 54 55 56 56 56 57 56 56 56 56 56 56 57 57 58 58 58 59 59 59 59 58
61 61 61 60 59 58 58 59 59 59 60 58 58 59 58 56 55 54 54 53 53 54 55 55 56 56 55 55 55 54 54 54 56 56 57 57 58 58 59 59 58 58
60 61 61 60 59 59 59 59 59 58 59 58 58 58 58 56 55 54 53 52 53 53 55 55 54 54 54 52 52 52 53 54 55 56 57 57 57 58 60 58 58 58
59 60 60 60 59 59 59 59 58 58 58 57 57 57 57 56 56 54 52 51 51 53 54 54 54 53 52 51 51 51 52 54 54 55 56 56 56 57 58 58 58 57
59 59 60 60 59 59 59 58 58 58 57 56 57 57 56 56 55 54 53 52 52 53 52 51 51 51 51 51 51 49 49 51 53 54 55 55 56 57 57 57 57 56
59 59 59 59 58 58 59 58 57 57 56 56 57 56 56 55 54 52 52 51 51 50 50 50 49 48 49 50 51 49 50 52 53 54 54 54 54 55 55 56 56 55
59 59 59 57 58 58 58 58 58 57 56 56 56 55 55 53 52 52 50 50 49 49 49 49 48 48 48 48 50 52 52 52 52 53 53 53 53 54 54 54 53 52
59 59 59 58 58 58 58 58 58 57 55 54 54 54 53 52 51 50 50 49 49 48 48 48 48 47 46 44 45 50 51 52 52 52 53 53 53 53 52 52 51 52
58 58 58 58 58 58 57 58 57 56 54 54 54 53 52 51 50 49 49 48 47 47 46 46 45 43 41 40 44 48 53 52 51 51 52 53 52 51 50 50 51 52
58 58 58 58 57 57 57 57 56 55 54 54 53 52 51 50 50 49 48 47 46 44 44 44 43 41 39 42 45 46 49 53 53 53 52 52 52 51 52 54 55 56
57 57 57 57 56 56 56 56 56 55 54 52 51 51 49 48 47 46 45 44 43 42 41 42 41 40 40 43 45 46 46 51 53 53 54 54 54 54 55 55 54 54
55 56 56 56 56 56 56 56 54 52 51 50 49 48 46 45 44 43 42 41 41 40 40 40 40 40 39 42 45 46 46 49 54 54 55 55 55 55 54 54 54 53
53 53 54 54 54 54 53 52 51 50 48 47 46 45 44 43 42 41 40 39 39 39 39 38 38 38 39 42 44 46 47 49 54 55 55 54 54 55 55 55 55 53
50 51 52 52 52 52 51 50 50 49 48 47 44 43 42 41 40 39 38 38 37 37 37 36 37 37 39 41 44 46 48 54 55 55 54 54 54 54 55 56 54 52
48 49 50 50 51 50 50 49 49 48 48 46 44 43 41 40 39 39 38 37 36 35 34 34 36 38 38 39 42 46 49 54 54 54 53 52 51 52 53 53 52 51
47 47 47 48 49 49 49 49 48 49 48 48 45 44 43 42 40 40 39 37 35 34 34 34 36 38 38 39 39 41 46 52 53 52 51 50 49 48 48 48 48 49
47 47 47 47 47 47 48 48 48 48 48 48 48 47 46 45 43 39 38 36 35 36 38 33 34 36 37 37 38 39 43 46 49 50 49 50 48 45 44 42 39 41
46 46 47 46 46 47 47 47 48 48 47 47 46 46 45 44 43 40 38 37 36 35 36 35 36 35 37 36 37 38 40 44 45 46 48 48 48 46 43 39 38 38